Current Weather Conditions: station 62132

sailwx.info

Wind from 160 at 14 knots

Air temperature 17.1° C
Dewpoint 15.6° C

Last reported at 2019-Aug-24 08:00 UTC.
Time now 2019-Aug-24 09:44 UTC

Location: N 56°24' E 002°00'.
View on Google Maps.

See reports from other nearby stations

  
Tides and Currents Weather Stations Pressure Air Temp Water Temp Dewpoint Dewpoint Depression Visibility Wind Speed Wind Dir Waves Ship Positions
date/time (UTC)wind fromknots sea level pressurealtimeterstation pressurevisibilityair tempwater tempwave heightnotes
2019-Aug-24 08:00 160 14 17.1
2019-Aug-24 07:00 160 15 16.9
2019-Aug-24 06:00 170 14 17.0
2019-Aug-24 05:00 170 14 17.0
2019-Aug-24 04:00 160 14 17.0
2019-Aug-24 03:00 160 13 16.8
2019-Aug-24 02:00 160 12 16.8
2019-Aug-24 01:00 150 12 16.8
2019-Aug-24 00:00 170 8 16.6
2019-Aug-23 23:00 180 6 16.6
2019-Aug-23 22:00 160 7 16.6
2019-Aug-23 21:00 170 7 16.7
2019-Aug-23 20:00 170 9 16.8
2019-Aug-23 19:00 190 11 16.9
2019-Aug-23 18:00 190 11 16.8
2019-Aug-23 17:00 200 11 16.9
2019-Aug-23 16:00 230 11 17.5
2019-Aug-23 15:00 230 13 17.1
2019-Aug-23 14:00 220 11 16.9
2019-Aug-23 13:00 240 9 17.1
2019-Aug-23 12:00 240 13 17.0
2019-Aug-23 11:00 230 12 16.8
2019-Aug-23 10:00 240 13 16.9
2019-Aug-23 09:00 230 13 16.7
2019-Aug-23 08:00 230 12 16.8
2019-Aug-23 07:00 250 11 16.9
2019-Aug-23 06:00 240 11 16.9
2019-Aug-23 05:00 270 15 17.0
2019-Aug-23 04:00 260 15 17.0
2019-Aug-23 03:00 260 15 17.1
2019-Aug-23 02:00 250 12 16.9
2019-Aug-23 01:00 260 13 17.2
2019-Aug-23 00:00 240 15 17.1
2019-Aug-22 23:00 220 15 17.3
2019-Aug-22 22:00 210 14 17.0
2019-Aug-22 21:00 210 13 16.8
2019-Aug-22 20:00 200 13 16.8
2019-Aug-22 19:00 200 13 16.7
2019-Aug-22 18:00 200 13 16.7
2019-Aug-22 17:00 210 14 16.6
2019-Aug-22 16:00 210 13 16.4
2019-Aug-22 15:00 210 13 16.1
2019-Aug-22 14:00 200 13 15.9
2019-Aug-22 13:00 210 13 15.9
2019-Aug-22 12:00 210 13 15.8
2019-Aug-22 11:00 220 13 15.8
2019-Aug-22 10:00 220 13 15.7
2019-Aug-22 09:00 240 12 15.6